Regional Weather Roundup
Issued by NWS

Home | Current Version | Previous Version | Graphics & Text | Print | Product List | Glossary Off
Versions: 1 2 3 4 5 6 7 8 9 10 11 12 13 14 15 16 17 18 19 20 21 22 23 24 25 26 27 28 29 30 31 32 33 34 35 36 37 38 39 40 41 42 43 44 45 46 47 48 49 50

000
ASUS43 KDMX 261208
RWRIA

WEATHER ROUNDUP FOR IOWA
NATIONAL WEATHER SERVICE DES MOINES IA
700 AM CDT TUE JUL 26 2016

NOTE: "FAIR" INDICATES FEW OR NO CLOUDS BELOW 12,000 FEET WITH NO
SIGNIFICANT WEATHER AND/OR OBSTRUCTIONS TO VISIBILITY.

* - THESE STATIONS ARE NOT NWS STATIONS...THUS NOT UNDER NWS
QUALITY CONTROL.  THEY ALSO DO NOT REPORT WEATHER SUCH
AS PRECIPITATION OR FOG.

IAZ001>003-012>014-020>022-031>034-043>046-261300-
   NORTHWEST IOWA

CITY           SKY/WX    TMP DP  RH WIND       PRES   REMARKS
CARROLL *      CLEAR     63  63 100 CALM      30.10S
CHEROKEE *     CLEAR     61  61 100 CALM      30.09S
DENISON *      CLEAR     61  61 100 CALM      30.08S
LE MARS *      CLEAR     64  63  94 CALM      30.09R
SHELDON *      CLEAR     64  63  94 SE5       30.07S
SIOUX CITY     CLEAR     65  62  90 E5        30.07S
6HR MIN TEMP:  63; 6HR MAX TEMP:  71;

SPENCER        CLEAR     63  61  93 S5        30.09S
6HR MIN TEMP:  61; 6HR MAX TEMP:  67;

STORM LAKE *   CLEAR     66  63  88 S5        30.10S
$$

IAZ055>058-069>071-079>083-090>094-261300-
   SOUTHWEST IOWA

CITY           SKY/WX    TMP DP  RH WIND       PRES   REMARKS
ATLANTIC *     CLEAR     61  59  94 CALM      30.11R
CLARINDA *       N/A     63  63 100 MISG      30.12R
COUNCIL BLFS * CLEAR     66  64  94 SE6       30.09F
CRESTON *      CLEAR     68  63  83 NE5       30.12R
HARLAN  *      CLEAR     61  61 100 CALM      30.14R
LAMONI         CLEAR     64  63  96 N3        30.09S
6HR MIN TEMP:  63; 6HR MAX TEMP:  69;

RED OAK *      CLEAR     63  63 100 CALM      30.10R
SHENANDOAH *   CLEAR     63  63 100 CALM      30.10S
$$

IAZ047>049-059>061-072>074-084-261300-
   CENTRAL IOWA

CITY           SKY/WX    TMP DP  RH WIND       PRES   REMARKS
AMES           CLEAR     62  62 100 CALM      30.09S
6HR MIN TEMP:  60; 6HR MAX TEMP:  65;

ANKENY *         N/A    N/A N/A N/A MISG        N/A
BOONE *        CLEAR     66  63  88 CALM      30.09S
CHARITON *       N/A    N/A N/A N/A MISG        N/A
DES MOINES     PTCLDY    69  66  90 CALM      30.08S
6HR MIN TEMP:  68; 6HR MAX TEMP:  74;

GRINNELL*      PTCLDY    65  63  91 CALM      30.10S
KNOXVILLE *    CLEAR     64  63  94 CALM      30.08S
MARSHALLTOWN   CLEAR     63  63 100 NW5       30.09R
6HR MIN TEMP:  61; 6HR MAX TEMP:  66;

NEWTON *       CLEAR     68  64  88 NE5       30.09S
PERRY *          N/A     64  63  99 CALM      30.10R FOG
$$

IAZ004>006-015-016-023>025-035-036-261300-
   NORTH CENTRAL IOWA

CITY           SKY/WX    TMP DP  RH WIND       PRES   REMARKS
ALGONA *       CLEAR     66  64  94 S6        30.10R
ESTHERVILLE    CLEAR     64  63  96 SW7       30.08S
6HR MIN TEMP:  63; 6HR MAX TEMP:  67;

FORT DODGE *   CLEAR     64  63  94 CALM      30.11R
MASON CITY     CLEAR     64  63  96 S5        30.11S
6HR MIN TEMP:  61; 6HR MAX TEMP:  66;

FOREST CITY *    N/A     61  61 100 CALM      30.10S
IOWA FALLS *     N/A     65  63  93 CALM      30.11S
$$

IAZ007>011-017>019-026>030-037>042-050>054-066-261300-
   NORTHEAST IOWA

CITY           SKY/WX    TMP DP  RH WIND       PRES   REMARKS
CEDAR RAPIDS   SUNNY     64  64 100 NW3       30.09R
6HR MIN TEMP:  62; 6HR MAX TEMP:  67;

CHARLES CITY * SUNNY     64  64 100 CALM      30.10S FOG
CLINTON *      MOSUNNY   67  66  97 N3        30.08R
DECORAH *      SUNNY     64  64 100 CALM      30.09R
DUBUQUE        SUNNY     68  64  87 CALM      30.10R
6HR MIN TEMP:  64; 6HR MAX TEMP:  70;

MONTICELLO *   SUNNY     63  63 100 CALM      30.09S
WATERLOO       MOSUNNY   65  64  97 CALM      30.09R FOG
6HR MIN TEMP:  62; 6HR MAX TEMP:  66;

$$

IAZ064-065-067-068-078-261300-
   EAST CENTRAL IOWA

CITY           SKY/WX    TMP DP  RH WIND       PRES   REMARKS
DAVENPORT      SUNNY     67  64  90 N3        30.09R
6HR MIN TEMP:  63; 6HR MAX TEMP:  67;

IOWA CITY      SUNNY     67  65  93 CALM      30.10R
6HR MIN TEMP:  65; 6HR MAX TEMP:  68;

MT. PLEASANT *   N/A     67  67 100 CALM      30.08S
MUSCATINE *    SUNNY     66  64  94 CALM      30.08S
QUAD CITIES    MOSUNNY   68  65  90 CALM      30.07R
6HR MIN TEMP:  65; 6HR MAX TEMP:  69;

$$

IAZ062-063-075>077-085>089-095>099-261300-
   SOUTHEAST IOWA

CITY           SKY/WX    TMP DP  RH WIND       PRES   REMARKS
BURLINGTON     SUNNY     68  67  96 N5        30.06S
6HR MIN TEMP:  64; 6HR MAX TEMP:  69;

FAIRFIELD *    PTCLDY    66  64  94 N6        30.08S
KEOKUK *       SUNNY     68  66  94 CALM      30.06S
CENTERVILLE *    N/A     63  63 100 CALM      30.10S
OTTUMWA        CLEAR     67  63  87 N6        30.08R
6HR MIN TEMP:  61; 6HR MAX TEMP:  67;

WASHINGTON *   SUNNY     68  64  88 N5        30.09S
$$

ABBREVIATIONS USED IN REMARKS
   TC - TEMPERATURES IN CELSIUS
  WCI - WIND CHILL INDEX
   HX - HEAT INDEX
  VSB - VISIBILITY
$$





USA.gov is the U.S. government's official web portal to all federal, state and local government web resources and services.